Bedford, MA

8:52 PM EDT on March 27, 2017 (GMT -0400)
Hanscom

Weather History for KBED - March, 2013

Change the Weather History Date:

Thursday, March 7, 2013

  Actual Average Record
Temperature  
Mean Temperature 32 °F -  
Max Temperature 34 °F 42 °F 69 °F (1974)
Min Temperature 30 °F 23 °F -2 °F (2003)
Degree Days  
Heating Degree Days 33    
Moisture  
Dew Point 28 °F    
Average Humidity 88    
Maximum Humidity 100    
Minimum Humidity 75    
Precipitation  
Precipitation 0.02 in - - ()
Sea Level Pressure  
Sea Level Pressure 30.04 in    
Wind  
Wind Speed 16 mph (North)    
Max Wind Speed 21 mph    
Max Gust Speed 31 mph    
Visibility 3 miles    
Events Rain , Snow    
Averages and records for this station are not official NWS values.
T = Trace of Precipitation, MM = Missing Value Source: NWS Daily Summary

Daily Weather History Graph

Daily Weather History Graph

Search for Another Location

Airport or City:

Trip Planner

Search our weather history database for the weather conditions in past years. The results will help you decide how hot, cold, wet, or windy it might be!

Date:

Astronomy

Mar. 07, 2013 Rise Set
Actual Time 6:10 AM EST 5:42 PM EST
Civil Twilight 5:42 AM EST 6:10 PM EST
Nautical Twilight 5:09 AM EST 6:43 PM EST
Astronomical Twilight 4:37 AM EST 7:15 PM EST
Moon 3:12 AM EST (3/7) 1:22 PM EST (3/7)
Length of Visible Light 12h 28m
Length of Day
11h 32m
Waning Crescent, 20% of the Moon is Illuminated
Mar 7
Waning Crescent
Mar 11
New
Mar 19
First Quarter
Mar 27
Full
Apr 3
Last Quarter

Hourly Weather History & Observations

Time (EST) Temp. Windchill Dew Point Humidity Pressure Visibility Wind Dir Wind Speed Gust Speed Precip Events Conditions
12:20 AM 33.8 °F 22.8 °F 28.4 °F 81% 30.07 in 10.0 mi NNE 18.4 mph 25.3 mph 0.00 in   Overcast
12:56 AM 34.0 °F 22.4 °F 27.0 °F 75% 30.11 in 10.0 mi NE 20.7 mph 27.6 mph 0.00 in   Overcast
1:56 AM 34.0 °F 23.8 °F 27.0 °F 75% 30.08 in 10.0 mi NNE 16.1 mph 23.0 mph N/A   Overcast
2:09 AM 33.8 °F 23.9 °F 28.4 °F 81% 30.03 in 10.0 mi North 15.0 mph 23.0 mph N/A   Overcast
2:56 AM 32.0 °F 21.2 °F 28.0 °F 85% 30.07 in 10.0 mi NNE 16.1 mph 23.0 mph N/A   Overcast
3:23 AM 32.0 °F 21.2 °F 28.4 °F 87% 30.03 in 4.0 mi NNE 16.1 mph 21.9 mph 0.00 in Rain Light Freezing Rain
3:34 AM 30.2 °F 19.3 °F 28.4 °F 93% 30.03 in 3.0 mi NNE 15.0 mph 21.9 mph 0.00 in Snow Light Snow
3:52 AM 30.2 °F 20.2 °F 28.4 °F 93% 30.03 in 2.5 mi North 12.7 mph 23.0 mph 0.00 in Snow Light Snow
3:56 AM 30.9 °F 20.2 °F 28.0 °F 89% 30.07 in 2.0 mi North 15.0 mph 24.2 mph 0.00 in Snow Light Snow
4:07 AM 30.2 °F 18.5 °F 28.4 °F 93% 30.02 in 1.5 mi North 17.3 mph 27.6 mph 0.01 in Snow Light Snow
4:32 AM 30.2 °F 19.8 °F 28.4 °F 93% 30.02 in 1.5 mi North 13.8 mph 21.9 mph 0.01 in Snow Light Snow
4:39 AM 30.2 °F 18.1 °F 28.4 °F 93% 30.02 in 2.0 mi North 18.4 mph 23.0 mph 0.01 in Snow Light Snow
4:52 AM 30.2 °F 17.4 °F 26.6 °F 86% 30.01 in 2.5 mi North 20.7 mph 28.8 mph 0.01 in Snow Light Snow
4:56 AM 30.0 °F 18.3 °F 27.0 °F 88% 30.06 in 3.0 mi North 17.3 mph 28.8 mph 0.01 in Snow Light Snow
5:12 AM 30.2 °F 18.9 °F 26.6 °F 86% 30.02 in 5.0 mi NNE 16.1 mph 26.5 mph 0.00 in Snow Light Snow
5:56 AM 30.0 °F 18.7 °F 26.1 °F 85% 30.08 in 2.0 mi NNE 16.1 mph 26.5 mph 0.00 in Snow Light Snow
6:10 AM 30.2 °F 17.4 °F 26.6 °F 86% 30.03 in 6.0 mi NNE 20.7 mph 28.8 mph 0.00 in Snow Light Snow
6:56 AM 30.0 °F 18.3 °F 26.1 °F 85% 30.08 in 3.0 mi North 17.3 mph 27.6 mph 0.00 in Snow Light Snow
7:03 AM 30.2 °F 18.1 °F 24.8 °F 80% 30.04 in 1.2 mi NNE 18.4 mph 26.5 mph 0.00 in Snow Light Snow
7:40 AM 30.2 °F 18.9 °F 24.8 °F 80% 30.04 in 2.5 mi North 16.1 mph 26.5 mph 0.00 in Snow Light Snow
7:56 AM 30.9 °F 19.4 °F 26.1 °F 82% 30.09 in 2.0 mi NNE 17.3 mph 24.2 mph 0.00 in Snow Light Snow
8:33 AM 30.2 °F 18.5 °F 26.6 °F 86% 30.03 in 3.0 mi North 17.3 mph 26.5 mph 0.00 in Snow Light Snow
8:56 AM 30.9 °F 19.4 °F 26.1 °F 82% 30.08 in 2.0 mi North 17.3 mph 25.3 mph 0.00 in Snow Light Snow
9:56 AM 32.0 °F 20.5 °F 27.0 °F 82% 30.07 in 2.0 mi North 18.4 mph 28.8 mph 0.00 in Snow Light Snow
10:03 AM 32.0 °F 20.8 °F 26.6 °F 80% 30.02 in 4.0 mi NNE 17.3 mph 25.3 mph 0.00 in Snow Light Snow
10:14 AM 32.0 °F 20.1 °F 28.4 °F 87% 30.02 in 1.8 mi North 19.6 mph 27.6 mph 0.00 in Snow Light Snow
10:52 AM 32.0 °F 21.6 °F 28.4 °F 87% 30.03 in 1.5 mi NNE 15.0 mph 24.2 mph 0.00 in Snow Light Snow
10:56 AM 32.0 °F 20.8 °F 28.0 °F 85% 30.08 in 1.5 mi NNE 17.3 mph 23.0 mph 0.00 in Snow Light Snow
11:23 AM 32.0 °F 22.1 °F 28.4 °F 87% 30.03 in 0.8 mi North 13.8 mph 28.8 mph 0.00 in Snow Light Snow
11:32 AM 32.0 °F 21.6 °F 28.4 °F 87% 30.03 in 1.5 mi NNE 15.0 mph 23.0 mph 0.00 in Snow Light Snow
11:56 AM 32.0 °F 20.1 °F 30.9 °F 96% 30.08 in 1.2 mi North 19.6 mph 31.1 mph 0.00 in Snow Light Snow
12:20 PM 32.0 °F 20.8 °F 32.0 °F 100% 30.03 in 1.2 mi North 17.3 mph 27.6 mph 0.00 in Snow Light Snow
12:30 PM 33.8 °F 23.2 °F 32.0 °F 93% 30.03 in 1.2 mi NNE 17.3 mph 23.0 mph 0.00 in Snow Light Snow
12:38 PM 33.8 °F 24.3 °F 32.0 °F 93% 30.03 in 1.2 mi NNE 13.8 mph 23.0 mph 0.00 in Snow Light Snow
12:52 PM 33.8 °F 23.2 °F 30.2 °F 87% 30.02 in 1.2 mi North 17.3 mph 27.6 mph 0.00 in Snow Light Snow
12:56 PM 33.1 °F 22.6 °F 30.0 °F 89% 30.07 in 1.2 mi North 16.1 mph 27.6 mph 0.00 in Snow Light Snow
1:05 PM 33.8 °F 23.2 °F 30.2 °F 87% 30.03 in 2.0 mi North 17.3 mph 24.2 mph 0.00 in Snow Light Snow
1:15 PM 33.8 °F 22.8 °F 28.4 °F 81% 30.03 in 1.5 mi NNE 18.4 mph 25.3 mph 0.00 in Snow Light Snow
1:56 PM 33.1 °F 22.6 °F 30.0 °F 89% 30.07 in 1.0 mi North 16.1 mph 26.5 mph 0.00 in Snow Light Snow
2:15 PM 33.8 °F 24.3 °F 30.2 °F 87% 30.02 in 2.5 mi NNE 13.8 mph 24.2 mph 0.00 in Snow Light Snow
2:47 PM 33.8 °F 23.9 °F 30.2 °F 87% 30.03 in 1.5 mi North 15.0 mph - 0.00 in Snow Light Snow
2:56 PM 32.0 °F 21.2 °F 30.2 °F 93% 30.03 in 1.2 mi North 16.1 mph 23.0 mph N/A Snow Light Snow
3:17 PM 32.0 °F 22.5 °F 30.2 °F 93% 30.02 in 0.8 mi North 12.7 mph 20.7 mph 0.00 in Snow Light Snow
3:24 PM 32.0 °F 20.8 °F 30.2 °F 93% 30.02 in 1.0 mi North 17.3 mph 23.0 mph 0.00 in Snow Light Snow
3:56 PM 32.0 °F 21.6 °F 30.0 °F 92% 30.07 in 1.0 mi North 15.0 mph 25.3 mph 0.00 in Snow Light Snow
4:02 PM 32.0 °F 21.6 °F 28.4 °F 87% 30.03 in 1.0 mi North 15.0 mph 25.3 mph 0.00 in Snow Light Snow
4:11 PM 32.0 °F 23.6 °F 28.4 °F 87% 30.03 in 0.8 mi North 10.4 mph 19.6 mph 0.00 in Snow Light Snow
4:31 PM 30.2 °F 19.8 °F 28.4 °F 93% 30.03 in 1.0 mi North 13.8 mph - 0.01 in Snow Light Snow
4:56 PM 30.9 °F 19.1 °F 28.0 °F 89% 30.09 in 1.8 mi North 18.4 mph 24.2 mph 0.01 in Snow Light Snow
4:59 PM 30.2 °F 18.9 °F 28.4 °F 93% 30.03 in 2.0 mi North 16.1 mph 24.2 mph 0.00 in Snow Light Snow
5:03 PM 30.2 °F 19.8 °F 28.4 °F 93% 30.03 in 1.0 mi North 13.8 mph 21.9 mph 0.00 in Snow Light Snow
5:56 PM 30.9 °F 20.7 °F 28.0 °F 89% 30.09 in 3.0 mi North 13.8 mph 28.8 mph 0.00 in Snow Light Snow
6:03 PM 30.2 °F 19.8 °F 28.4 °F 93% 30.04 in 6.0 mi North 13.8 mph 25.3 mph 0.00 in   Overcast
6:56 PM 30.9 °F 21.7 °F 27.0 °F 85% 30.08 in 3.0 mi North 11.5 mph 20.7 mph 0.00 in Snow Light Snow
7:21 PM 30.2 °F 20.8 °F 26.6 °F 86% 30.03 in 5.0 mi North 11.5 mph 21.9 mph 0.00 in Snow Light Snow
7:56 PM 30.9 °F 20.7 °F 27.0 °F 85% 30.08 in 3.0 mi North 13.8 mph 24.2 mph 0.00 in Snow Light Snow
8:06 PM 30.2 °F 19.8 °F 26.6 °F 86% 30.03 in 2.5 mi North 13.8 mph - 0.00 in Snow Light Snow
8:16 PM 30.2 °F 20.2 °F 26.6 °F 86% 30.02 in 4.0 mi North 12.7 mph - 0.00 in Snow Light Snow
8:45 PM 30.2 °F 20.2 °F 26.6 °F 86% 30.02 in 3.0 mi North 12.7 mph 19.6 mph 0.00 in Snow Light Snow
8:56 PM 30.0 °F 21.1 °F 27.0 °F 88% 30.07 in 3.0 mi North 10.4 mph 18.4 mph 0.00 in Snow Light Snow
9:03 PM 30.2 °F 21.3 °F 26.6 °F 86% 30.02 in 7.0 mi North 10.4 mph 18.4 mph 0.00 in Snow Light Snow
9:13 PM 30.2 °F 20.2 °F 26.6 °F 86% 30.01 in 7.0 mi North 12.7 mph - 0.00 in   Overcast
9:56 PM 30.0 °F 21.1 °F 27.0 °F 88% 30.06 in 3.0 mi North 10.4 mph 23.0 mph 0.00 in Snow Light Snow
10:17 PM 30.2 °F 20.2 °F 26.6 °F 86% 30.00 in 2.5 mi North 12.7 mph 18.4 mph 0.00 in Snow Light Snow
10:29 PM 30.2 °F 20.2 °F 26.6 °F 86% 30.00 in 1.8 mi North 12.7 mph - 0.00 in Snow Light Snow
10:41 PM 30.2 °F 20.2 °F 28.4 °F 93% 30.00 in 1.5 mi North 12.7 mph - 0.00 in Snow Light Snow
10:43 PM 30.2 °F 20.2 °F 28.4 °F 93% 30.00 in 1.5 mi North 12.7 mph - 0.00 in Snow Light Snow
10:56 PM 30.0 °F 20.5 °F 28.0 °F 92% 30.05 in 1.5 mi North 11.5 mph - 0.00 in Snow Light Snow
11:04 PM 30.2 °F 21.3 °F 28.4 °F 93% 30.00 in 2.0 mi North 10.4 mph - 0.00 in Snow Light Snow
11:43 PM 30.2 °F 20.8 °F 26.6 °F 86% 29.99 in 3.0 mi North 11.5 mph 19.6 mph 0.00 in Snow Light Snow
11:56 PM 30.0 °F 21.1 °F 27.0 °F 88% 30.04 in 4.0 mi North 10.4 mph 21.9 mph 0.00 in Snow Light Snow